Weather History for KGCN - September, 2012

Change the Weather History Date:

Saturday, September 8, 2012

  Actual Average Record
Temperature  
Mean Temperature 63 °F -  
Max Temperature 82 °F 74 °F 88 °F (1977)
Min Temperature 44 °F 43 °F 33 °F (2001)
Degree Days  
Heating Degree Days 2    
Growing Degree Days 13 (Base 50)    
Moisture  
Dew Point 37 °F    
Average Humidity 51    
Maximum Humidity 93    
Minimum Humidity 15    
Precipitation  
Precipitation 0.00 in - - ()
Sea Level Pressure  
Sea Level Pressure 30.15 in    
Wind  
Wind Speed 4 mph (ENE)    
Max Wind Speed 16 mph    
Max Gust Speed 22 mph    
Visibility 8 miles    
Events      
Averages and records for this station are not official NWS values.
T = Trace of Precipitation, MM = Missing Value Source: NWS Daily Summary

Daily Weather History Graph

Daily Weather History Graph

Search for Another Location

Airport or City:

Trip Planner

Search our weather history database for the weather conditions in past years. The results will help you decide how hot, cold, wet, or windy it might be!

Date:

Astronomy

Sep. 08, 2012 Rise Set
Actual Time 6:06 AM MST 6:45 PM MST
Civil Twilight 5:40 AM MST 7:11 PM MST
Nautical Twilight 5:09 AM MST 7:41 PM MST
Astronomical Twilight 4:38 AM MST 8:12 PM MST
Moon 11:47 PM MST (9/8) 1:37 PM MST (9/8)
Length of Visible Light 13h 30m
Length of Day
12h 39m
Waning Gibbous, 48% of the Moon is Illuminated
Sep 8
Waning Gibbous
Sep 15
New
Sep 22
First Quarter
Sep 29
Full
Oct 8
Last Quarter

Hourly Weather History & Observations

Time (MST) Temp. Dew Point Humidity Pressure Visibility Wind Dir Wind Speed Gust Speed Precip Events Conditions
12:18 AM 50.0 °F 46.4 °F 87% 30.32 in 6.0 mi Calm Calm - N/A   Partly Cloudy
12:54 AM 50.0 °F 46.9 °F 89% 30.08 in 4.0 mi Calm Calm - N/A   Clear
1:03 AM 48.2 °F 46.4 °F 93% 30.32 in 2.0 mi Calm Calm - N/A   Clear
1:14 AM 48.2 °F 44.6 °F 87% 30.32 in 10.0 mi NE 3.5 mph - N/A   Clear
1:54 AM 51.1 °F 48.0 °F 89% 30.08 in 10.0 mi NE 8.1 mph - N/A   Clear
2:54 AM 50.0 °F 46.9 °F 89% 30.08 in 10.0 mi NE 5.8 mph - N/A   Clear
3:54 AM 46.0 °F 42.1 °F 86% 30.12 in 8.0 mi Calm Calm - N/A   Mostly Cloudy
4:15 AM 44.6 °F 42.8 °F 93% 30.33 in 4.0 mi Calm Calm - N/A   Scattered Clouds
4:37 AM 44.6 °F 42.8 °F 93% 30.33 in 2.5 mi Calm Calm - N/A   Partly Cloudy
4:47 AM 46.4 °F 42.8 °F 87% 30.34 in 4.0 mi Calm Calm - N/A   Mostly Cloudy
4:54 AM 48.0 °F 44.1 °F 86% 30.12 in 6.0 mi Calm Calm - N/A   Mostly Cloudy
5:54 AM 57.9 °F 43.0 °F 58% 30.09 in 10.0 mi ENE 8.1 mph - N/A   Scattered Clouds
6:54 AM 64.0 °F 37.9 °F 38% 30.09 in 10.0 mi East 4.6 mph - N/A   Partly Cloudy
7:54 AM 70.0 °F 37.0 °F 30% 30.10 in 10.0 mi NE 10.4 mph - N/A   Clear
8:54 AM 73.0 °F 35.1 °F 25% 30.12 in 10.0 mi NE 12.7 mph - N/A   Clear
9:54 AM 75.9 °F 33.1 °F 21% 30.12 in 10.0 mi ENE 16.1 mph - N/A   Clear
10:54 AM 77.0 °F 33.1 °F 20% 30.12 in 10.0 mi ENE 15.0 mph 19.6 mph N/A   Clear
11:54 AM 79.0 °F 32.0 °F 18% 30.10 in 10.0 mi ENE 11.5 mph - N/A   Clear
12:54 PM 80.6 °F 30.2 °F 16% 30.36 in 10.0 mi NE 9.2 mph 20.7 mph N/A   Clear
1:54 PM 82.0 °F 30.9 °F 16% 30.05 in 10.0 mi NE 16.1 mph 21.9 mph N/A   Clear
2:54 PM 80.1 °F 30.0 °F 16% 30.04 in 10.0 mi Variable 3.5 mph - N/A   Clear
3:54 PM 80.1 °F 28.9 °F 15% 30.04 in 10.0 mi Variable 5.8 mph - N/A   Clear
4:54 PM 79.0 °F 28.0 °F 15% 30.02 in 10.0 mi East 4.6 mph - N/A   Clear
5:54 PM 77.0 °F 28.0 °F 17% 29.99 in 10.0 mi East 4.6 mph - N/A   Clear
6:54 PM 68.0 °F 30.9 °F 25% 30.01 in 10.0 mi ESE 3.5 mph - N/A   Scattered Clouds
7:54 PM 57.2 °F 30.2 °F 36% 30.29 in 10.0 mi Calm Calm - N/A   Clear
8:54 PM 53.1 °F 30.0 °F 41% 30.06 in 4.0 mi Calm Calm - N/A   Haze
9:41 PM 51.8 °F 30.2 °F 44% 30.33 in 3.0 mi Calm Calm - N/A   Haze
9:54 PM 50.0 °F 30.0 °F 46% 30.07 in 3.0 mi Calm Calm - N/A   Haze
10:54 PM 48.9 °F 30.0 °F 48% 30.07 in 10.0 mi Calm Calm - N/A   Clear
11:54 PM 48.0 °F 32.0 °F 54% 30.06 in 9.0 mi Calm Calm - N/A   Clear